Flag for U.S.A. Weather past 2 weeks in Albuquerque, New Mexico, U.S.A.

Now
48 °F

Passing clouds.


Feels Like: 45 °F
Forecast: 46 / 72 °F
Wind: 6 mph from Southeast

Location: Albuquerque International Airport

Current Time: May 25, 2015 at 6:11:56 AM

Latest Report: May 25, 2015 at 5:52 AM


Visibility: 10 mi

Pressure: 29.85 "Hg

Humidity: 89%

Dew point: 45 °F

Location of AlbuquerqueLocation

Historic Weather in Albuquerque — Graph

°F

Albuquerque temperature yesterday

Maximum temperature yesterday: 69 °F (at 1:52 PM)
Minimum temperature yesterday: 47 °F (at 5:52 AM)
Average temperature yesterday: 58 °F

Past Weeks' High & Low Weather Summary

 TemperatureHumidityPressure
High78 °F (May 18, 1:52 PM)93% (May 16, 3:52 AM)30.11 "Hg (May 16, 3:52 AM)
Low39 °F (May 10, 4:52 AM)10% (May 14, 6:52 PM)29.66 "Hg (May 14, 6:52 PM)
Average59 °F49%29.88 "Hg
* Reported May 10 4:52 AM — May 25 4:52 AM, Albuquerque, Weather by CustomWeather, © 2015

Note: Actual official high and low records may vary slightly from our data, if they occured in-between our weather recording intervals... More about our weather records

Advertising

Albuquerque weather history for previous 24 hours

 ConditionsComfort  
Time TempWeatherWind HumidityBarometerVisibility
4:52 AM
Mon, May 25
49 °FPassing clouds.3 mph90%29.83 "Hg10 mi
3:52 AM51 °FPassing clouds.No wind86%29.83 "Hg10 mi
2:52 AM52 °FPartly cloudy.No wind83%29.83 "Hg10 mi
1:52 AM53 °FOvercast.No wind77%29.83 "Hg10 mi
12:52 AM53 °FOvercast.5 mph77%29.84 "Hg10 mi
11:52 PM
Sun, May 24
55 °FOvercast.5 mph67%29.85 "Hg10 mi
10:52 PM55 °FLight rain. Overcast.14 mph62%29.87 "Hg10 mi
9:52 PM54 °FPassing clouds.12 mph72%29.85 "Hg10 mi
8:52 PM53 °FPartly sunny.15 mph72%29.83 "Hg10 mi
8:03 PM51 °FHeavy rain. Broken clouds.30 mph69%29.95 "Hg2 mi
6:52 PM66 °FBroken clouds.14 mph32%29.73 "Hg10 mi
5:52 PM65 °FBroken clouds.10 mph37%29.74 "Hg10 mi
4:52 PM68 °FScattered clouds.16 mph33%29.73 "Hg10 mi
3:52 PM67 °FBroken clouds.14 mph35%29.75 "Hg10 mi
2:52 PM64 °FLight rain. Broken clouds.20 mph43%29.77 "Hg10 mi
1:52 PM69 °FPartly sunny.10 mph25%29.75 "Hg10 mi
12:52 PM66 °FPartly sunny.5 mph29%29.79 "Hg10 mi
11:52 AM63 °FScattered clouds.8 mph34%29.81 "Hg10 mi
10:52 AM61 °FScattered clouds.5 mph38%29.81 "Hg10 mi
9:52 AM58 °FScattered clouds.5 mph44%29.83 "Hg10 mi
8:52 AM55 °FPartly sunny.No wind49%29.84 "Hg10 mi
7:52 AM52 °FPartly sunny.3 mph57%29.83 "Hg10 mi
6:52 AM50 °FPartly cloudy.3 mph59%29.84 "Hg10 mi
Weather by CustomWeather, © 2015

See weather overviewHow to use our weather pages